Torna al catalogo

COSMOS 2279

AttivoMilitarePO
NORAD 23092·PAYLOAD·🇷🇺 Russia

Lanciato Apr 26, 1994 da Plesetsk Cosmodrome

Loading…

Prossimi Passaggi (prossime 24 ore)

TLE

AggiornatoSource: Space-Track

Epoca: Sep 14, 2026, 09:53 UTC

1 23092U 94024A   26257.41205544  .00000072  00000-0  57384-4 0  9992
2 23092  82.9513 148.5482 0035366   4.0447 356.0989 13.76653423626330

Traccia COSMOS 2279 in tempo reale con AllMySat

Download on the App Store